GFSSE_sfc_rhum_162.txt.gz
RH
77 81 82 81 82 83 82 81 82 83 82 80 78 76 75 76 75 72 72 74 70 72 72 69 67 72 66 67 67 74 76 77 79 80 81 80 74 70 76 73 70 65 66
78 78 85 81 82 84 83 83 84 86 86 83 79 77 76 73 72 70 71 73 71 68 72 71 71 71 68 68 69 75 76 77 79 84 87 87 82 71 74 69 73 63 60
82 84 84 83 81 83 85 86 86 85 86 83 80 78 76 74 72 70 72 75 74 70 74 72 70 69 70 71 73 74 73 75 78 84 87 91 85 70 68 70 70 68 65
85 84 89 85 82 81 85 87 87 85 84 84 83 82 78 74 73 70 71 75 78 77 77 75 74 72 72 72 74 71 72 75 78 84 88 86 75 67 64 64 68 67 63
84 82 92 86 83 81 82 87 86 86 85 84 84 82 81 76 74 73 73 78 81 82 82 81 78 74 73 77 74 72 74 72 77 77 88 87 84 59 63 64 63 72 68
81 81 88 86 83 83 82 86 85 85 86 86 86 85 81 78 75 73 76 83 87 86 84 82 79 75 76 80 75 73 73 72 76 84 84 79 76 57 58 58 69 67 65
64 71 80 86 88 86 82 81 84 86 86 86 84 82 81 80 79 78 84 86 88 87 85 82 79 77 76 79 74 72 74 79 84 89 90 84 74 60 61 60 64 66 63
51 51 61 76 88 88 88 84 83 82 82 82 85 84 83 83 84 85 87 87 87 85 85 84 81 79 77 77 76 80 80 78 81 92 90 90 80 67 63 65 61 61 65
51 51 52 50 61 77 83 88 89 90 88 84 84 86 86 87 86 86 88 88 86 87 89 88 85 82 79 78 82 85 82 80 87 94 84 91 82 66 67 69 65 62 60
51 50 46 47 48 49 59 70 82 85 89 89 94 97 97 97 96 90 91 91 89 90 92 91 89 87 85 84 85 87 85 82 89 93 93 85 74 59 57 62 70 65 62
48 48 49 49 46 46 42 50 62 68 78 91 92 95 96 97 96 95 95 94 92 91 92 92 91 90 90 90 89 88 88 96 90 88 94 81 74 62 62 66 68 66 64
39 41 48 48 49 48 40 46 48 52 58 59 66 85 92 94 96 94 98 96 93 94 93 93 90 92 94 98 98 94 98 96 92 88 91 82 75 66 66 67 68 66 69
42 48 49 49 52 58 57 60 60 58 61 68 62 68 88 97 99 97 99 99 99 100 99 97 97 98 98 99 99 99 98 96 96 90 80 83 77 70 67 69 69 68 70
51 51 57 59 53 52 59 60 63 62 59 60 57 63 75 92 98 97 99 98 99 99 98 92 92 94 99 98 97 98 98 98 97 91 89 85 82 74 68 69 71 70 71
62 63 65 66 64 60 60 63 62 62 64 60 60 58 68 78 88 98 98 98 98 98 97 90 85 82 92 96 98 97 97 97 96 90 88 86 87 81 73 70 71 69 68
65 69 69 68 69 69 66 67 67 68 67 68 67 64 58 69 79 84 93 98 96 96 96 95 89 85 85 87 92 97 96 96 94 91 85 83 87 86 81 74 70 66 71
71 73 73 69 69 75 75 73 71 73 62 70 67 65 62 64 70 76 85 90 96 98 96 96 95 94 89 85 88 89 96 96 94 89 82 74 80 89 86 77 74 74 72
75 75 76 68 77 80 80 79 75 74 76 71 70 70 66 64 65 71 83 86 90 96 97 95 95 94 95 92 88 87 89 92 92 90 83 79 78 74 86 86 83 80 78
77 79 79 78 81 80 80 80 83 81 79 75 74 69 62 62 63 68 71 78 83 90 94 94 92 96 92 96 93 90 91 92 92 84 86 81 79 74 73 82 88 87 85
80 81 82 80 82 82 86 88 85 86 86 82 76 72 68 62 60 66 68 75 80 89 90 92 90 88 95 92 87 95 94 95 94 94 82 77 78 79 77 80 79 81 90
79 82 82 84 80 84 84 87 87 88 86 85 79 73 68 66 64 62 64 70 76 81 77 77 85 87 85 92 91 93 93 97 97 94 92 81 75 82 84 82 78 78 76
83 83 83 82 82 81 85 85 89 87 79 80 83 79 72 66 64 62 63 64 70 70 84 86 82 76 80 93 93 96 97 98 98 96 95 90 83 86 86 82 81 80 79
86 85 82 83 84 84 85 84 81 73 79 78 85 84 77 72 69 68 63 66 68 69 67 81 80 82 77 79 94 91 96 92 99 98 94 90 86 85 83 79 80 80 80
81 85 85 84 85 80 84 91 92 89 87 82 80 80 83 76 70 69 70 66 64 65 69 77 76 76 82 80 84 87 86 93 95 99 97 95 88 87 86 86 85 82 79
81 87 88 86 86 85 88 90 93 93 84 84 78 78 82 80 75 71 74 72 73 71 68 77 80 84 79 79 77 81 86 90 88 94 89 96 98 92 86 85 87 90 86
86 86 86 85 80 81 84 87 90 94 90 84 85 79 74 76 80 76 73 74 75 77 76 78 82 82 78 78 78 78 80 83 86 87 90 89 96 97 89 85 88 90 91

GFSSE_sfc_rhum_165.txt.gz
RH
74 74 82 80 83 83 80 81 81 82 80 77 75 75 77 77 74 72 72 70 72 74 71 64 66 65 68 66 70 74 76 79 78 77 81 79 76 75 70 67 69 54 73
68 72 84 82 80 82 83 83 84 86 85 81 77 75 74 72 72 70 73 73 68 69 70 67 69 64 67 67 73 75 76 77 79 82 84 84 82 75 67 68 71 55 71
73 73 76 87 81 81 83 85 86 86 86 82 79 77 75 72 70 69 75 76 73 68 73 72 73 67 68 70 74 74 75 77 81 83 85 58 58 72 67 70 71 64 63
72 71 75 90 82 81 80 83 86 84 84 84 82 80 76 73 71 70 72 75 78 76 75 73 71 72 72 73 73 71 74 75 80 84 62 58 54 65 64 62 62 62 64
68 70 78 89 83 81 81 82 84 86 85 84 84 83 82 76 74 71 73 77 82 81 81 80 78 74 75 77 72 70 73 76 82 71 63 64 60 56 67 70 68 66 61
53 63 76 90 84 83 83 80 82 84 84 85 85 85 82 80 76 74 76 82 86 85 84 80 78 75 79 80 75 73 72 72 78 60 60 62 53 58 57 58 69 67 68
38 42 57 82 87 85 85 83 81 82 81 81 84 84 82 80 80 79 83 85 86 86 84 83 80 76 78 82 76 74 74 78 58 57 57 57 54 61 58 63 69 64 60
42 42 44 59 71 82 85 87 88 85 84 81 80 79 79 80 82 84 86 86 86 84 84 84 81 78 77 78 78 80 81 79 66 58 60 58 67 63 62 62 60 65 66
41 42 41 40 51 63 70 78 85 85 86 88 89 85 84 88 85 83 86 87 86 87 89 89 86 83 80 79 82 85 83 80 60 58 59 60 82 69 65 66 64 63 65
38 39 38 41 39 39 51 64 69 72 73 85 91 92 98 97 94 92 89 88 88 90 90 92 90 88 86 84 86 88 87 82 57 63 63 58 76 67 62 70 66 61 63
36 37 38 36 36 39 37 41 58 63 66 67 71 88 90 83 80 79 90 97 91 89 90 91 92 90 91 90 89 89 91 61 59 59 61 77 74 66 62 63 69 63 64
39 39 41 43 40 39 31 40 46 45 46 45 50 49 53 65 83 88 90 97 96 92 92 91 90 93 93 70 71 87 64 62 61 59 58 82 75 68 64 68 69 70 68
40 46 51 51 52 47 46 44 41 42 44 46 52 61 55 76 82 83 94 94 90 93 82 85 78 75 72 72 73 71 68 61 61 60 61 82 80 71 67 70 71 70 69
51 53 55 57 55 56 55 50 48 45 46 44 43 49 56 70 67 62 74 91 96 90 91 81 82 79 80 72 69 70 69 67 62 61 61 84 83 76 70 70 72 71 70
57 57 59 59 57 56 57 55 52 51 49 47 48 45 51 58 60 62 65 72 77 90 95 95 88 84 81 80 78 73 71 70 66 61 58 85 86 82 75 70 72 73 70
61 61 62 61 60 61 60 62 59 57 56 53 50 48 46 48 54 60 60 62 68 74 80 91 91 89 87 83 82 83 77 71 70 66 59 55 86 84 80 74 71 73 69
63 66 65 63 61 65 65 65 64 65 60 62 59 54 52 50 49 54 59 63 60 60 62 71 74 88 90 87 89 80 83 80 73 70 64 60 59 87 86 76 76 76 75
68 68 69 64 69 68 67 67 64 65 64 64 63 60 60 56 52 52 59 61 58 62 64 70 69 74 78 82 92 85 85 89 86 74 68 65 71 61 74 85 82 80 78
69 69 70 69 71 72 70 70 70 69 68 66 65 65 62 58 56 53 50 49 56 62 64 66 68 73 76 74 77 83 92 93 92 84 74 70 69 69 61 68 88 86 85
69 71 69 68 70 70 73 71 68 69 69 68 69 69 68 62 58 58 54 52 53 60 65 69 65 67 72 74 70 75 78 92 95 93 88 75 74 72 67 61 56 68 89
66 69 69 72 68 70 70 72 70 74 74 72 69 71 70 68 65 61 58 56 54 54 49 45 57 58 62 66 79 76 78 75 74 92 93 94 94 76 71 68 63 54 57
70 69 69 69 70 70 72 72 73 73 73 69 70 69 71 70 68 63 60 59 55 53 58 58 58 60 57 63 68 71 77 68 80 79 85 90 88 89 79 74 73 68 62
68 69 69 69 70 69 72 73 71 67 64 62 61 64 66 69 71 70 66 61 57 57 56 60 60 65 62 60 62 68 64 67 61 77 84 83 88 91 85 90 81 78 77
65 70 73 71 70 63 67 71 73 74 72 62 65 65 63 61 70 72 70 65 61 58 59 60 57 58 65 64 65 66 72 65 71 68 80 88 87 87 82 85 81 83 82
70 72 74 71 69 65 66 68 72 72 66 65 68 70 68 64 60 65 72 70 68 64 61 63 63 64 60 65 62 65 66 71 71 80 71 58 82 84 78 78 84 88 86
71 73 75 72 69 63 62 64 68 69 69 68 72 74 72 70 69 68 70 72 69 68 68 66 67 66 64 64 65 66 69 68 69 78 76 66 64 54 69 73 76 79 83

GFSSE_sfc_rhum_171.txt.gz
RH
62 56 77 81 78 79 77 76 75 75 76 74 73 75 76 75 72 69 68 69 72 70 64 63 61 63 64 65 72 77 78 74 74 77 82 81 74 66 61 64 70 63 78
58 55 76 80 78 78 80 79 80 80 79 76 73 72 73 73 69 67 71 70 66 70 65 63 64 63 66 70 72 77 76 74 75 77 84 83 80 69 63 67 78 69 69
53 53 55 84 81 81 79 82 82 82 82 80 77 74 72 70 69 66 72 73 69 68 73 67 68 64 66 71 74 75 75 74 74 74 79 49 58 66 62 65 69 73 66
49 48 60 91 81 81 79 79 80 79 82 80 81 78 76 72 70 68 71 75 75 75 73 73 67 68 70 73 74 74 75 76 77 79 56 38 39 66 64 60 63 67 72
43 50 67 89 84 75 78 79 80 79 78 79 82 81 82 77 74 70 68 75 78 81 78 75 72 73 74 75 73 74 74 77 79 72 43 59 48 56 62 59 61 61 65
34 39 57 73 81 85 78 75 76 77 78 79 80 80 80 80 78 77 74 77 80 82 80 79 78 76 76 77 73 72 74 77 82 51 43 51 50 67 66 66 60 59 61
29 30 34 61 62 67 76 84 84 80 78 76 78 77 76 76 77 80 82 83 80 82 82 81 81 77 78 80 75 73 75 80 57 42 42 42 46 58 57 62 66 67 65
29 29 30 55 58 58 58 61 64 68 76 84 82 78 77 78 80 82 83 84 82 81 83 83 84 80 79 80 78 80 83 81 56 47 43 45 68 60 58 61 70 64 64
26 26 26 26 34 55 59 59 59 59 60 62 75 83 86 87 86 82 85 85 84 83 86 87 87 84 82 81 84 84 87 83 58 44 40 44 75 63 62 60 68 66 63
23 23 24 24 24 24 26 59 59 61 62 60 60 68 76 87 90 89 89 88 86 85 85 86 87 88 87 84 86 88 89 86 60 49 45 43 74 64 69 64 65 64 67
24 24 25 25 25 25 22 26 45 53 53 56 54 61 50 40 50 57 79 92 90 89 86 86 86 87 89 91 89 91 93 66 53 49 43 71 72 65 68 69 71 67 65
25 25 27 28 28 28 21 24 27 25 26 25 24 26 26 26 28 39 58 85 91 92 92 91 88 87 89 63 70 89 69 60 51 47 43 80 72 65 66 73 77 75 72
24 27 30 34 36 34 32 32 26 26 26 26 26 28 27 26 28 28 34 38 47 77 70 78 75 73 64 60 55 69 68 56 48 45 47 82 75 68 67 70 76 78 74
30 30 33 38 38 39 37 33 31 29 28 29 25 29 29 32 30 24 24 30 35 38 47 65 75 75 72 67 61 58 64 61 56 47 46 83 80 70 70 69 74 77 74
34 32 37 40 40 38 41 38 36 35 33 32 34 30 30 32 28 27 25 27 29 29 33 40 47 59 73 70 68 67 62 61 58 57 52 82 82 80 74 71 70 71 74
33 38 42 43 44 44 43 44 42 40 40 40 38 37 34 34 33 34 31 30 28 28 28 29 36 43 49 66 71 69 69 71 65 60 57 64 83 82 79 74 72 71 72
37 44 46 46 44 47 45 44 45 43 42 45 44 42 42 42 42 42 40 39 33 28 26 28 28 32 40 45 50 64 68 66 67 68 64 62 69 85 83 76 75 78 78
46 47 47 47 50 49 45 44 41 43 44 45 44 44 46 46 47 49 49 45 38 36 33 33 32 32 32 35 42 50 54 62 66 66 66 67 69 59 81 84 81 80 80
46 47 48 48 46 46 43 42 39 38 40 40 40 45 46 49 50 51 50 48 44 44 41 40 37 37 40 38 38 39 46 61 67 69 72 74 72 76 67 79 84 82 83
48 50 47 43 42 42 41 38 32 32 32 32 37 38 44 47 50 55 54 51 48 48 48 48 46 43 42 42 33 32 40 44 47 54 66 65 72 75 73 72 74 74 85
50 50 46 45 40 42 40 38 36 36 38 36 35 35 39 34 37 46 54 54 52 50 47 43 45 48 46 43 47 49 49 46 43 43 48 52 65 74 78 85 86 69 65
47 49 47 44 42 43 43 42 41 40 39 39 41 34 32 32 38 38 38 48 53 54 52 50 49 52 49 45 49 51 57 49 43 40 40 40 42 54 69 75 76 77 78
46 48 46 46 45 44 42 41 37 36 40 36 35 37 37 45 50 53 54 52 50 62 61 55 54 58 58 52 48 51 58 57 48 39 37 35 39 43 46 64 76 78 79
43 45 50 51 49 44 42 40 39 41 41 37 38 38 49 51 53 54 57 57 58 58 68 60 53 56 57 60 54 44 51 50 61 62 44 39 36 35 47 64 72 73 75
42 48 52 52 52 48 47 40 41 42 40 37 37 52 55 54 53 59 62 65 68 74 74 65 57 57 54 57 58 57 55 54 49 59 66 56 45 40 37 56 66 76 76
41 47 54 55 54 49 47 41 41 44 43 42 52 59 60 58 61 63 62 61 63 67 76 73 61 58 58 59 58 56 56 59 56 57 59 58 58 50 45 42 41 57 74

GFSSE_sfc_rhum_177.txt.gz
RH
79 86 84 79 80 80 77 77 76 77 77 75 74 76 76 75 71 69 68 68 73 73 66 63 62 66 68 72 76 76 75 73 74 81 83 80 73 68 77 79 80 78 78
73 72 81 80 81 82 81 80 84 83 80 77 74 73 73 73 70 67 72 72 65 70 67 64 60 65 71 72 77 76 72 71 75 83 84 84 79 72 72 80 78 72 69
71 74 79 89 84 86 84 84 84 84 82 81 78 75 74 71 70 67 71 74 73 68 72 73 64 65 70 73 76 76 72 69 71 81 84 81 81 69 67 74 76 69 69
71 72 85 92 84 85 83 82 81 82 82 82 82 80 78 76 73 70 67 73 76 78 79 75 71 74 73 75 76 75 74 74 77 80 80 70 65 66 64 64 72 68 67
67 70 80 88 88 86 83 82 82 82 82 82 82 82 81 80 80 76 72 71 78 82 84 81 78 78 77 78 76 76 76 77 83 81 79 76 76 62 64 64 68 70 70
57 54 74 78 78 82 86 86 83 80 79 82 82 82 81 78 78 79 82 82 81 86 84 84 83 80 83 81 78 76 76 81 85 88 80 72 69 65 65 66 67 71 70
56 51 56 67 65 67 71 72 72 75 81 80 79 78 77 77 79 81 84 86 85 85 82 84 83 82 84 83 79 77 82 85 88 92 82 72 81 70 69 67 64 64 65
42 47 45 61 61 63 58 56 57 57 58 64 75 82 81 81 82 83 83 85 88 85 82 84 85 86 86 83 80 84 85 87 79 85 77 71 76 67 64 69 70 68 68
37 38 39 39 49 63 66 62 59 54 55 58 58 60 64 70 81 83 87 86 84 85 86 86 88 88 88 86 85 87 88 89 91 83 69 72 82 65 62 62 66 70 69
35 38 38 40 41 40 41 57 50 54 56 56 60 64 68 72 70 76 88 90 88 87 87 87 87 86 88 89 88 90 92 91 96 92 82 77 73 66 63 64 67 72 70
38 38 43 44 46 47 41 46 54 58 61 66 66 69 70 52 51 69 76 74 82 87 90 89 88 87 90 93 93 92 94 94 97 93 84 81 72 67 65 71 71 72 71
49 45 48 51 53 53 39 53 55 48 53 48 46 44 50 47 48 54 62 72 71 72 81 88 90 91 93 94 97 95 93 94 98 90 81 81 75 66 69 74 78 76 75
42 44 50 54 57 59 58 64 64 62 62 61 51 55 53 48 56 55 56 54 64 80 84 90 95 95 96 97 93 95 94 96 90 85 76 80 77 69 70 75 79 82 80
45 47 56 58 57 61 69 68 68 66 67 64 62 59 62 66 61 55 55 55 54 54 52 61 90 97 98 97 92 93 88 94 89 80 74 81 78 76 72 75 77 81 82
47 50 58 60 63 62 65 72 71 71 71 70 69 65 66 68 67 65 63 62 60 57 53 51 51 52 70 91 97 96 92 90 88 82 79 80 81 80 74 75 74 72 74
45 52 61 62 63 66 70 71 71 73 72 72 73 70 64 70 74 71 72 70 69 66 61 56 52 50 49 56 69 90 95 95 94 89 90 91 93 88 79 73 75 74 72
47 55 61 62 64 70 68 66 66 71 64 72 73 71 66 68 73 76 80 79 76 70 65 63 59 57 55 50 51 52 75 94 96 96 94 91 92 95 89 76 73 76 78
58 63 63 58 66 67 64 65 63 64 66 68 69 64 67 66 68 78 82 82 79 76 74 73 70 66 63 60 58 53 56 62 83 94 95 96 95 91 94 91 81 78 78
65 66 69 68 66 61 61 63 64 59 63 62 58 65 54 54 58 61 77 82 79 81 80 77 72 74 73 70 64 57 58 59 59 58 83 91 95 97 97 93 94 93 86
72 71 66 63 60 59 65 65 63 61 63 62 64 59 55 57 47 61 64 64 68 79 82 81 78 74 74 74 57 56 66 63 66 69 66 58 73 90 95 96 96 95 95
73 70 66 65 61 62 68 68 65 66 66 64 61 54 55 52 55 63 72 75 75 77 79 79 80 79 77 73 79 76 74 69 63 56 58 60 58 59 86 95 97 98 93
71 71 68 64 63 62 68 69 67 68 67 67 68 58 53 51 56 66 75 77 76 78 80 84 86 86 81 76 83 85 87 74 68 63 67 62 60 62 60 63 90 95 97
71 77 69 66 64 64 65 66 64 64 65 63 63 60 57 55 71 72 75 78 79 80 88 88 89 87 85 70 76 75 79 76 71 68 64 63 60 64 65 62 66 81 88
65 72 70 65 66 66 66 64 63 66 68 68 66 66 62 72 74 75 76 77 80 83 88 92 75 89 77 77 74 68 80 72 78 74 70 64 66 60 65 68 74 77 74
56 65 73 73 75 74 72 66 68 66 70 71 69 66 75 82 76 74 77 76 80 83 85 85 89 87 78 75 77 88 85 83 81 85 88 82 72 68 68 68 71 77 74
57 61 70 74 75 77 77 72 66 64 65 69 68 70 84 87 85 80 76 71 68 68 76 85 78 76 78 78 82 89 89 90 88 91 94 88 85 74 72 71 70 68 73